Weather History for KARR - March, 2013

Change the Weather History Date:

Sunday, March 3, 2013

  Actual Average Record
Temperature  
Mean Temperature 17 °F 31 °F  
Max Temperature 28 °F 41 °F 50 °F (2008)
Min Temperature 5 °F 22 °F -9 °F (2014)
Degree Days  
Heating Degree Days 48 34  
Month to date heating degree days 136 103  
Since 1 July heating degree days 4965 5241  
Cooling Degree Days 0 0  
Month to date cooling degree days 0 0  
Year to date cooling degree days 0 0  
Moisture  
Dew Point 9 °F    
Average Humidity 69    
Maximum Humidity 92    
Minimum Humidity 46    
Precipitation  
Precipitation 0.00 in 0.07 in 0.26 in (2008)
Month to date precipitation T 0.20  
Year to date precipitation 4.87 3.29  
Sea Level Pressure  
Sea Level Pressure 30.15 in    
Wind  
Wind Speed 4 mph (WNW)    
Max Wind Speed 6 mph    
Max Gust Speed 6 mph    
Visibility 10 miles    
Events      
T = Trace of Precipitation, MM = Missing Value Source: NWS Daily Summary

Daily Weather History Graph

Daily Weather History Graph

Search for Another Location

Airport or City:

Trip Planner

Search our weather history database for the weather conditions in past years. The results will help you decide how hot, cold, wet, or windy it might be!

Date:

Astronomy

Mar. 03, 2013 Rise Set
Actual Time 6:25 AM CST 5:47 PM CST
Civil Twilight 5:57 AM CST 6:14 PM CST
Nautical Twilight 5:25 AM CST 6:47 PM CST
Astronomical Twilight 4:52 AM CST 7:19 PM CST
Moon No Moon Rise 9:34 AM CST (3/3)
Length of Visible Light 12h 17m
Length of Day
11h 21m
Waning Gibbous, 63% of the Moon is Illuminated
Mar 3
Waning Gibbous
Mar 4
Last Quarter
Mar 11
New
Mar 19
First Quarter
Mar 27
Full

Hourly Weather History & Observations

Time (CST) Temp. Windchill Dew Point Humidity Pressure Visibility Wind Dir Wind Speed Gust Speed Precip Events Conditions
12:52 AM 6.1 °F -0.9 °F 3.0 °F 87% 30.19 in 10.0 mi WNW 3.5 mph - N/A   Clear
1:52 AM 6.1 °F -0.9 °F 3.0 °F 87% 30.19 in 10.0 mi WNW 3.5 mph - N/A   Clear
2:52 AM 8.1 °F 1.4 °F 5.0 °F 87% 30.17 in 10.0 mi WNW 3.5 mph - N/A   Clear
3:52 AM 8.1 °F -2.0 °F 3.9 °F 83% 30.16 in 10.0 mi WNW 5.8 mph - N/A   Clear
4:52 AM 5.0 °F -4.1 °F 1.9 °F 87% 30.17 in 10.0 mi WNW 4.6 mph - N/A   Clear
5:52 AM 7.0 °F -1.7 °F 3.0 °F 84% 30.19 in 10.0 mi WNW 4.6 mph - N/A   Clear
6:52 AM 7.0 °F 0.1 °F 3.9 °F 87% 30.19 in 10.0 mi NW 3.5 mph - N/A   Clear
7:52 AM 10.9 °F - 8.1 °F 88% 30.19 in 10.0 mi Calm Calm - N/A   Clear
8:52 AM 16.0 °F - 10.0 °F 77% 30.19 in 10.0 mi Calm Calm - N/A   Clear
9:52 AM 23.0 °F 15.8 °F 14.0 °F 68% 30.18 in 10.0 mi West 5.8 mph - N/A   Clear
10:52 AM 26.1 °F 18.4 °F 10.9 °F 53% 30.17 in 10.0 mi WNW 6.9 mph - N/A   Clear
11:52 AM 27.0 °F 18.7 °F 10.9 °F 51% 30.16 in 10.0 mi WNW 8.1 mph - N/A   Clear
12:52 PM 28.0 °F 20.0 °F 12.9 °F 53% 30.14 in 10.0 mi WNW 8.1 mph - N/A   Clear
1:52 PM 28.0 °F 20.0 °F 10.9 °F 49% 30.12 in 10.0 mi West 8.1 mph - N/A   Clear
2:52 PM 28.0 °F 20.8 °F 12.0 °F 51% 30.12 in 10.0 mi West 6.9 mph - N/A   Clear
3:52 PM 28.0 °F 21.7 °F 12.9 °F 53% 30.12 in 10.0 mi WNW 5.8 mph - N/A   Clear
4:52 PM 27.0 °F 21.6 °F 16.0 °F 63% 30.12 in 10.0 mi WNW 4.6 mph - N/A   Clear
5:52 PM 21.9 °F 15.7 °F 15.1 °F 75% 30.13 in 10.0 mi West 4.6 mph - N/A   Clear
6:52 PM 19.9 °F 14.9 °F 14.0 °F 78% 30.13 in 10.0 mi WNW 3.5 mph - N/A   Clear
7:52 PM 15.1 °F - 10.9 °F 84% 30.14 in 10.0 mi Calm Calm - N/A   Clear
8:52 PM 12.9 °F - 10.9 °F 92% 30.14 in 10.0 mi Calm Calm - N/A   Clear
9:52 PM 15.1 °F 9.4 °F 10.9 °F 84% 30.13 in 10.0 mi NNE 3.5 mph - N/A   Clear
10:52 PM 14.0 °F - 10.0 °F 84% 30.13 in 10.0 mi Calm Calm - N/A   Clear
11:52 PM 16.0 °F - 10.9 °F 81% 30.13 in 10.0 mi Calm Calm - N/A   Clear